Wind_Speed
9 8 8 7 5 5 5 5 5 5 5 6 7 8 8 9 9 9 10 11 13 13 13 13 13 14 15 16 15 15 16 16 17 16 15 14 13 11 10 9 8 7 6
8 7 6 5 4 4 4 4 4 5 5 6 7 7 8 8 9 9 9 10 11 12 13 14 14 14 15 15 16 16 17 18 18 18 17 16 16 15 13 12 11 10 9
6 5 5 5 4 4 4 4 5 5 5 5 6 6 7 7 8 9 9 10 10 11 11 13 14 15 15 15 15 16 17 18 19 19 20 18 18 18 17 15 14 12 11
5 4 4 4 4 4 4 4 5 5 5 5 5 5 6 6 7 7 8 9 10 10 11 12 13 14 15 16 16 16 17 17 18 19 20 20 19 20 20 19 17 16 14
4 3 3 2 3 3 3 4 4 5 5 5 6 6 6 6 7 7 7 8 9 10 10 11 12 12 13 15 16 16 17 18 19 19 19 20 20 21 22 21 20 19 17
3 2 2 1 2 2 3 4 5 5 6 6 6 6 6 6 6 6 7 7 8 9 9 9 11 12 13 13 15 15 16 16 18 19 20 19 20 21 22 23 23 22 21
2 2 1 1 1 1 2 4 5 6 6 6 7 7 7 7 7 7 7 8 8 9 9 9 9 10 12 13 15 15 16 16 16 18 20 20 20 20 22 23 24 24 24
2 2 1 0 0 1 2 3 5 5 6 7 7 8 8 8 8 8 8 8 9 9 10 10 11 11 12 12 13 14 15 16 17 17 18 20 21 21 21 23 25 26 25
2 2 1 1 1 1 2 3 4 5 6 7 8 8 9 8 9 9 9 9 9 10 11 11 12 12 12 12 13 14 15 16 17 18 18 19 21 22 22 23 24 25 26
3 2 2 1 1 1 2 3 4 5 6 7 8 9 10 10 10 10 10 10 11 11 12 13 13 13 13 13 13 15 16 16 17 18 19 20 21 21 22 23 25 26 27
4 3 2 2 1 0 1 2 3 5 6 7 9 10 11 11 11 11 11 12 12 12 13 14 14 14 14 15 15 16 16 17 18 19 19 20 21 22 22 23 25 26 28
5 4 4 3 2 1 2 3 4 5 7 8 9 10 11 12 12 13 13 13 13 14 14 15 15 15 16 16 17 17 17 18 19 20 20 21 21 22 23 24 25 26 27
7 6 5 5 4 4 4 5 6 7 8 9 10 11 12 13 14 14 14 14 15 15 15 15 16 16 17 17 18 18 18 19 19 20 21 22 23 24 24 25 26 27 28
8 8 7 7 7 7 7 8 8 9 10 11 12 13 14 15 16 16 16 16 17 17 16 16 16 17 17 18 18 19 19 20 21 21 22 23 24 25 26 26 27 28 29
10 10 10 10 10 10 10 11 12 13 13 14 15 16 17 17 18 18 18 19 19 19 18 18 18 18 19 19 19 20 21 21 22 23 23 24 25 26 27 28 29 29 30
12 12 12 12 13 14 14 15 16 16 16 18 19 19 20 20 20 21 21 21 21 21 21 21 20 21 21 21 21 21 22 22 23 24 24 25 26 27 28 28 30 31 32
13 14 14 15 16 17 17 18 19 20 20 21 22 23 23 23 23 23 23 23 23 23 23 23 23 23 23 23 22 22 23 23 24 25 25 26 27 27 28 29 30 31 32
16 16 17 18 19 20 21 21 22 23 24 25 25 26 26 26 26 26 26 25 25 25 25 26 26 25 25 24 24 24 25 25 25 25 26 27 27 28 29 29 30 31 33
19 20 20 21 22 23 24 24 25 26 27 28 28 28 29 29 29 28 28 28 28 27 28 28 28 27 27 27 26 26 26 26 27 27 27 27 28 29 30 30 31 31 33
22 23 24 24 25 26 26 27 28 29 29 30 30 31 31 31 31 31 30 30 30 30 30 30 30 30 29 29 29 28 28 28 29 29 29 28 28 29 30 30 31 32 33
24 25 26 27 27 28 29 30 31 31 32 32 32 33 33 33 33 32 32 32 32 32 32 32 32 32 31 31 31 31 31 30 30 31 30 30 30 29 30 31 32 32 33
27 27 28 29 30 30 31 32 33 33 34 34 34 34 34 34 34 34 34 34 34 34 34 34 34 34 33 33 33 33 33 33 32 33 32 31 32 31 32 32 32 33 34
29 30 31 31 31 32 34 35 35 35 35 36 36 36 36 36 36 36 36 36 36 37 37 36 36 36 36 36 36 35 35 35 34 35 35 33 34 33 33 33 33 33 34
31 32 33 33 34 34 34 36 37 38 37 37 38 38 38 38 38 39 39 38 38 39 40 40 39 38 38 39 39 39 38 38 37 37 38 36 36 36 35 35 35 35 36
34 34 35 35 36 36 37 38 38 38 38 39 39 39 40 41 41 42 42 42 41 42 42 42 41 41 41 41 42 42 41 41 39 39 40 40 38 38 38 37 38 38 37
36 36 37 38 38 38 38 39 39 40 40 41 41 41 42 43 44 44 45 45 44 44 45 44 44 44 43 43 44 45 45 45 43 42 42 43 42 41 40 39 40 40 39
Wind_Direction
277 280 281 280 280 279 282 286 286 285 279 275 270 266 268 270 273 267 270 267 264 263 261 260 258 258 258 255 253 250 244 244 242 239 237 234 231 229 229 229 229 225 222
278 282 288 288 287 287 291 296 298 300 296 288 280 275 275 278 278 279 278 274 270 268 265 263 262 261 260 256 254 254 252 246 242 239 239 237 235 233 232 231 230 229 227
283 288 295 297 299 304 306 309 310 311 313 311 306 294 286 284 280 280 279 276 274 272 272 269 265 264 260 259 256 256 257 251 247 244 240 240 238 235 233 233 233 231 231
281 290 298 303 309 313 314 320 321 319 320 325 327 321 312 304 298 292 288 284 280 277 277 276 271 266 262 261 260 259 256 253 251 249 245 242 239 237 236 235 235 234 233
271 279 293 311 318 328 332 337 338 337 336 340 336 329 319 310 306 304 301 298 290 286 288 287 281 276 269 266 264 263 259 256 253 252 250 246 243 240 238 237 236 235 234
266 271 290 309 324 342 352 358 356 355 353 352 351 346 339 331 319 315 314 311 306 301 299 297 289 281 277 273 269 266 265 263 256 254 252 251 249 245 241 239 237 237 236
255 261 279 303 339 355 6 9 8 9 6 2 359 355 353 351 343 331 321 317 314 312 309 304 306 296 285 280 276 271 270 268 265 260 257 255 253 250 246 241 239 238 238
236 224 217 179 38 14 12 21 22 24 19 15 9 2 358 354 350 343 335 326 320 317 315 313 310 308 303 292 285 276 273 272 269 266 263 260 257 253 250 246 242 240 239
197 183 175 151 109 62 49 34 25 23 19 16 12 7 2 357 354 350 344 337 330 325 320 316 313 310 307 299 292 286 281 278 275 270 269 267 262 258 255 249 245 243 242
200 197 196 170 119 85 55 32 21 14 12 10 7 4 2 360 356 352 347 339 332 326 321 318 314 310 308 304 299 292 285 281 279 275 270 269 268 265 260 256 250 247 246
208 211 210 210 205 138 25 8 2 359 359 0 359 358 358 357 354 350 346 341 336 330 324 320 318 313 309 306 301 295 290 285 280 278 275 273 270 268 263 260 257 253 250
214 217 222 230 232 255 302 327 332 336 339 342 344 346 347 346 346 344 342 340 336 332 326 322 318 314 311 307 301 297 294 288 284 280 277 275 272 270 266 264 262 257 254
223 225 233 241 251 264 279 298 311 318 322 325 330 333 336 337 337 336 335 333 332 330 326 322 318 315 312 308 303 300 296 292 287 283 279 276 274 271 269 266 264 260 257
230 236 243 251 258 267 276 286 296 303 307 312 317 321 323 326 328 328 328 328 328 328 326 323 319 316 314 310 306 302 298 294 291 287 284 280 276 273 270 268 266 263 259
239 245 251 257 263 269 276 283 290 295 299 303 307 311 314 317 318 320 320 321 321 322 322 320 318 315 313 311 307 303 299 297 294 291 287 283 279 275 272 269 267 266 263
246 252 257 262 266 271 277 283 288 292 296 300 302 304 307 309 311 311 312 313 313 313 315 315 313 311 309 308 306 302 299 297 295 293 291 287 283 279 275 272 269 266 265
254 259 264 267 271 275 278 283 287 290 293 296 298 300 302 304 306 306 307 307 307 307 308 309 309 308 306 305 303 301 299 297 295 293 292 289 286 282 279 275 272 269 266
260 264 267 270 273 277 280 283 286 289 291 293 296 297 299 300 302 303 303 303 303 303 304 305 305 304 304 302 301 300 299 297 294 293 292 290 288 284 281 278 275 272 269
264 268 270 273 276 279 281 284 286 288 290 292 294 295 296 297 298 299 299 300 300 300 301 301 302 302 301 300 299 299 298 297 295 293 291 290 288 285 283 280 277 275 272
268 271 273 275 277 279 282 284 286 288 289 291 292 292 293 294 294 295 295 296 296 298 298 298 299 300 299 298 297 297 297 296 296 294 292 290 288 287 284 281 279 276 274
270 272 274 276 277 279 281 283 285 286 287 288 289 290 290 291 292 292 292 293 293 295 296 296 297 297 296 295 295 295 295 294 294 293 292 291 288 286 284 282 280 278 276
273 273 274 276 277 278 280 283 284 285 285 286 287 287 288 288 289 290 290 290 291 293 294 295 295 295 295 294 294 294 294 294 293 292 291 290 288 287 285 282 280 279 278
276 277 276 277 279 280 280 282 284 284 285 285 284 284 285 286 287 288 289 289 290 291 292 293 293 293 293 293 293 293 293 293 292 291 290 290 288 287 285 283 281 279 277
277 277 276 277 279 279 280 283 284 283 283 283 283 283 284 285 287 287 287 288 289 290 290 290 291 291 291 291 292 292 292 292 291 291 290 289 288 287 286 284 282 280 279
278 279 279 279 279 279 281 282 282 282 282 282 283 284 285 285 286 286 287 288 289 288 288 288 289 290 290 290 291 291 291 290 290 290 289 288 286 285 284 284 283 281 279
277 278 278 279 279 278 280 281 281 282 283 283 283 284 284 285 285 286 287 288 288 287 287 287 288 289 289 288 289 289 289 289 289 288 287 286 286 284 283 283 282 281 279
Height
5884 5884 5884 5884 5884 5884 5884 5884 5884 5884 5884 5884 5884 5884 5884 5883 5883 5882 5884 5885 5886 5887 5888 5889 5890 5891 5892 5893 5894 5895 5896 5898 5899 5901 5902 5904 5905 5907 5908 5909 5911 5912 5913
5882 5882 5882 5883 5882 5882 5883 5883 5882 5882 5883 5883 5882 5882 5882 5882 5882 5882 5883 5883 5884 5885 5885 5886 5887 5888 5889 5890 5891 5892 5893 5895 5896 5898 5899 5901 5903 5905 5906 5907 5909 5910 5911
5881 5881 5881 5882 5881 5881 5881 5881 5881 5881 5881 5881 5881 5881 5881 5881 5881 5881 5882 5882 5882 5882 5883 5884 5884 5885 5886 5887 5888 5889 5890 5892 5893 5894 5896 5898 5900 5901 5903 5905 5907 5908 5910
5880 5880 5880 5880 5881 5881 5880 5881 5880 5880 5880 5880 5880 5880 5880 5879 5879 5880 5880 5880 5880 5880 5880 5881 5881 5882 5883 5884 5885 5886 5887 5888 5889 5891 5893 5894 5896 5898 5900 5902 5904 5906 5907
5879 5879 5879 5879 5880 5880 5880 5880 5880 5880 5880 5879 5879 5879 5878 5878 5878 5878 5878 5878 5878 5878 5878 5878 5878 5879 5880 5880 5881 5883 5884 5885 5886 5888 5889 5890 5892 5894 5896 5898 5900 5903 5904
5878 5879 5879 5879 5879 5879 5880 5879 5879 5879 5879 5878 5878 5878 5877 5876 5876 5876 5876 5876 5876 5876 5876 5876 5876 5876 5877 5877 5878 5879 5880 5881 5882 5884 5885 5886 5888 5890 5892 5894 5896 5899 5901
5877 5878 5878 5878 5878 5879 5879 5879 5879 5878 5878 5878 5878 5877 5876 5876 5875 5875 5875 5875 5874 5874 5874 5874 5874 5874 5874 5874 5875 5876 5877 5878 5879 5880 5881 5883 5884 5886 5887 5889 5891 5894 5897
5877 5877 5878 5878 5878 5878 5879 5879 5879 5878 5878 5878 5877 5877 5876 5876 5875 5874 5874 5873 5873 5872 5872 5872 5872 5872 5872 5872 5872 5873 5874 5874 5875 5876 5877 5878 5880 5881 5883 5885 5887 5889 5892
5876 5877 5877 5878 5878 5878 5878 5879 5879 5879 5878 5878 5877 5877 5876 5875 5874 5874 5873 5872 5871 5871 5870 5870 5870 5869 5869 5869 5869 5870 5870 5870 5871 5872 5873 5874 5875 5877 5878 5880 5882 5884 5887
5875 5876 5877 5877 5878 5878 5878 5878 5879 5878 5878 5878 5877 5876 5875 5874 5874 5873 5872 5871 5870 5869 5868 5868 5867 5867 5867 5867 5867 5866 5867 5867 5868 5868 5868 5869 5870 5872 5873 5875 5877 5879 5881
5875 5876 5876 5877 5878 5878 5878 5878 5878 5878 5878 5877 5877 5876 5875 5874 5873 5872 5871 5870 5869 5867 5866 5865 5865 5864 5864 5863 5863 5863 5863 5863 5863 5863 5864 5865 5865 5866 5868 5869 5871 5873 5875
5874 5875 5876 5876 5877 5877 5878 5878 5878 5878 5877 5877 5876 5875 5874 5873 5872 5871 5869 5868 5867 5866 5864 5863 5862 5861 5861 5860 5859 5859 5859 5859 5858 5859 5859 5860 5860 5861 5862 5863 5865 5866 5868
5873 5874 5875 5875 5876 5876 5877 5877 5877 5876 5876 5876 5875 5874 5873 5872 5871 5869 5868 5866 5865 5864 5862 5861 5859 5858 5857 5857 5855 5855 5854 5854 5854 5853 5854 5854 5855 5855 5856 5857 5858 5859 5861
5871 5872 5873 5874 5874 5875 5875 5875 5875 5875 5874 5874 5873 5872 5871 5870 5869 5867 5866 5864 5863 5861 5860 5858 5857 5855 5854 5853 5851 5850 5850 5849 5848 5848 5848 5848 5848 5849 5849 5850 5851 5852 5854
5869 5870 5871 5871 5872 5872 5873 5873 5872 5872 5872 5871 5871 5870 5869 5867 5866 5865 5863 5861 5860 5858 5857 5855 5853 5852 5850 5849 5847 5846 5845 5844 5843 5842 5842 5841 5841 5842 5842 5843 5844 5845 5846
5866 5867 5868 5869 5869 5869 5870 5869 5869 5869 5869 5868 5867 5866 5865 5864 5863 5861 5859 5858 5856 5854 5853 5851 5850 5848 5846 5844 5843 5841 5840 5838 5837 5836 5835 5835 5834 5834 5834 5835 5835 5836 5838
5863 5864 5865 5865 5866 5866 5866 5866 5865 5865 5865 5864 5863 5862 5861 5859 5858 5856 5855 5853 5851 5850 5848 5846 5845 5843 5841 5839 5837 5836 5834 5833 5831 5830 5829 5828 5827 5827 5827 5827 5827 5827 5828
5859 5860 5861 5861 5861 5861 5861 5861 5861 5860 5859 5859 5858 5857 5855 5854 5852 5851 5849 5848 5846 5844 5843 5841 5839 5837 5835 5833 5831 5830 5828 5827 5825 5824 5822 5821 5820 5819 5818 5818 5818 5818 5819
5855 5855 5856 5856 5856 5856 5856 5855 5855 5854 5853 5852 5851 5850 5849 5847 5846 5844 5843 5841 5839 5838 5836 5834 5832 5831 5829 5827 5825 5823 5821 5820 5818 5817 5815 5814 5812 5811 5810 5809 5809 5809 5809
5849 5850 5850 5850 5850 5850 5849 5849 5848 5847 5846 5845 5844 5843 5842 5840 5839 5837 5836 5834 5832 5830 5829 5827 5825 5823 5821 5819 5818 5816 5814 5812 5810 5808 5807 5806 5804 5802 5801 5800 5800 5800 5799
5843 5843 5843 5843 5843 5842 5842 5841 5840 5839 5838 5837 5836 5835 5834 5832 5831 5829 5828 5826 5824 5822 5821 5819 5817 5815 5813 5811 5809 5808 5806 5804 5802 5800 5798 5797 5795 5794 5793 5791 5790 5790 5789
5836 5836 5836 5835 5834 5834 5833 5832 5831 5830 5830 5829 5827 5826 5824 5823 5822 5820 5818 5817 5815 5814 5812 5810 5808 5806 5804 5802 5800 5798 5796 5795 5793 5791 5789 5788 5786 5785 5783 5782 5781 5780 5779
5828 5828 5827 5827 5826 5825 5824 5823 5822 5821 5820 5819 5818 5816 5815 5814 5812 5811 5809 5807 5805 5803 5802 5800 5798 5796 5794 5792 5790 5788 5786 5784 5783 5781 5779 5778 5776 5775 5773 5772 5771 5770 5769
5819 5819 5818 5818 5817 5815 5814 5813 5812 5811 5810 5809 5807 5806 5804 5803 5801 5800 5798 5797 5795 5793 5791 5789 5787 5785 5783 5781 5778 5777 5775 5773 5772 5770 5767 5767 5765 5763 5762 5761 5759 5758 5757
5810 5809 5808 5807 5807 5805 5804 5803 5801 5800 5799 5798 5796 5795 5793 5792 5790 5787 5786 5785 5783 5781 5779 5777 5775 5774 5772 5769 5766 5764 5763 5761 5760 5759 5756 5754 5753 5752 5751 5749 5747 5746 5745
5799 5798 5797 5796 5795 5794 5793 5792 5790 5788 5788 5787 5785 5784 5782 5780 5778 5775 5773 5772 5770 5768 5766 5764 5762 5761 5759 5757 5754 5752 5749 5747 5746 5746 5744 5740 5740 5738 5738 5737 5735 5733 5733